CET,Max TemperatureF,Mean TemperatureF,Min TemperatureF,Max Dew PointF,MeanDew PointF,Min DewpointF,Max Humidity, Mean Humidity, Min Humidity, Max Sea Level PressureIn, Mean Sea Level PressureIn, Min Sea Level PressureIn, Max VisibilityMiles, Mean VisibilityMiles, Min VisibilityMiles, Max Wind SpeedMPH, Mean Wind SpeedMPH, Max Gust SpeedMPH,PrecipitationIn, CloudCover, Events, WindDirDegrees
2013-10-1,59,50,42,48,44,41,100,81,51,29.98,29.87,29.80,6,5,4,11,4,,0.00,3,,333
2013-10-2,53,47,41,43,39,34,93,77,47,30.24,30.10,29.98,6,6,6,11,4,,0.00,6,,344
2013-10-3,53,42,30,36,31,25,100,66,35,30.48,30.42,30.33,,,,11,3,,0.00,,,129
2013-10-4,53,44,35,34,30,27,81,60,41,30.51,30.45,30.39,,,,13,9,,0.00,,,144
2013-10-5,55,44,32,39,34,28,87,63,41,30.39,30.25,30.18,6,6,6,18,6,,0.00,7,,142
2013-10-6,57,52,48,48,43,39,88,70,54,30.30,30.24,30.18,6,6,6,7,3,,0.00,6,,169
2013-10-7,64,53,42,48,46,41,100,78,45,30.36,30.32,30.30,6,5,4,4,3,,0.00,6,,7
2013-10-8,68,54,39,50,44,37,100,75,40,30.33,30.29,30.21,5,5,4,9,2,,0.00,1,Fog,127
2013-10-9,64,57,50,54,50,46,94,81,59,30.21,30.12,30.01,6,5,3,9,2,,0.00,6,Rain,116
2013-10-10,62,56,51,55,54,52,100,87,72,30.01,29.88,29.80,5,4,2,16,6,,0.00,5,Rain,150
2013-10-11,68,60,51,57,54,52,100,85,64,30.12,29.93,29.83,6,5,2,16,10,27,0.00,7,Rain,117
2013-10-12,69,60,50,59,54,50,100,89,64,30.15,30.11,30.06,6,6,4,9,3,,0.00,6,Rain,193
2013-10-13,60,51,42,55,50,41,100,91,63,30.21,30.15,30.12,6,3,0,16,7,,0.00,3,Fog,200
2013-10-14,62,52,41,55,48,41,100,93,68,30.21,30.15,30.06,6,4,2,4,2,,0.00,5,Fog,72
2013-10-15,60,52,44,52,49,45,100,93,72,30.06,29.96,29.77,6,3,0,7,3,,0.00,4,Fog,212
2013-10-16,53,50,48,52,46,43,100,85,71,29.89,29.77,29.71,6,5,2,29,12,40,0.00,7,Rain,326
2013-10-17,59,50,41,48,43,39,93,75,51,30.01,29.98,29.89,6,6,5,25,15,38,0.00,6,,331
2013-10-18,62,52,41,48,44,37,100,76,51,30.18,30.05,29.98,6,6,6,20,7,27,0.00,4,Rain,266
2013-10-19,62,50,37,46,43,36,100,78,48,30.24,30.19,30.15,6,6,6,16,5,,0.00,6,,150
2013-10-20,69,60,51,54,50,45,82,71,53,30.15,30.11,30.06,6,6,6,13,9,,0.00,3,,174
2013-10-21,71,60,48,57,54,48,100,83,53,30.18,30.13,30.09,5,5,4,9,5,,0.00,6,,181
2013-10-22,71,60,48,59,56,48,100,82,60,30.12,30.08,30.04,6,6,6,9,5,,0.00,5,,142
2013-10-23,77,68,60,57,56,55,88,68,47,30.04,29.97,29.92,,,,25,13,38,0.00,,,176
2013-10-24,68,62,53,59,56,52,100,80,68,30.18,30.12,30.04,6,6,5,11,6,,0.00,6,,354
2013-10-25,73,60,46,59,52,46,100,84,53,30.18,30.13,30.09,6,2,0,16,3,,0.00,2,Fog,155
2013-10-26,66,54,42,57,51,43,100,93,73,30.15,30.11,30.09,5,2,0,7,2,,0.00,5,Fog,297
2013-10-27,69,58,48,57,53,46,100,84,60,30.12,30.01,29.95,5,4,2,16,4,,0.00,2,,187
2013-10-28,73,64,55,61,56,54,94,77,60,30.04,29.94,29.83,6,6,5,18,7,,0.00,4,,177
2013-10-29,64,57,48,57,52,46,100,87,59,30.09,29.99,29.86,6,3,0,18,6,29,0.00,5,Fog-Rain,305
2013-10-30,55,47,39,50,47,39,100,92,77,30.36,30.22,30.09,6,5,3,18,6,,0.00,6,Rain,2
2013-10-31,59,47,35,48,41,36,100,88,48,30.39,30.34,30.27,3,1,0,4,1,,0.00,2,Fog,150